TimePST,TemperatureF,Dew PointF,Humidity,Sea Level PressureIn,VisibilityMPH,Wind Direction,Wind SpeedMPH,Gust SpeedMPH,PrecipitationIn,Events,Conditions,WindDirDegrees,DateUTC
12:08 AM,32.0,30.2,93,29.81,10.0,Calm,Calm,-,N/A,,Overcast,0,2013-01-27 08:08:00
12:56 AM,32.0,30.9,96,29.81,4.0,Calm,Calm,-,0.01,Snow,Light Snow,0,2013-01-27 08:56:00
1:01 AM,32.0,30.2,93,29.81,1.8,Calm,Calm,-,0.00,Snow,Light Snow,0,2013-01-27 09:01:00
1:22 AM,32.0,30.2,93,29.80,0.8,Calm,Calm,-,0.02,Snow,Light Snow,0,2013-01-27 09:22:00
1:40 AM,32.0,30.2,93,29.80,1.0,Calm,Calm,-,0.07,Snow,Light Snow,0,2013-01-27 09:40:00
1:49 AM,32.0,30.2,93,29.80,2.0,Calm,Calm,-,0.08,Snow,Light Snow,0,2013-01-27 09:49:00
1:56 AM,32.0,30.9,96,29.81,3.0,WSW,4.6,-,0.08,,Overcast,240,2013-01-27 09:56:00
2:22 AM,32.0,32.0,100,29.80,2.5,SSW,4.6,-,0.00,Snow,Light Snow,210,2013-01-27 10:22:00
2:35 AM,32.0,30.2,93,29.79,3.0,SW,3.5,-,0.00,Snow,Light Snow,220,2013-01-27 10:35:00
2:56 AM,32.0,30.9,96,29.79,3.0,WSW,4.6,-,0.00,Snow,Light Snow,250,2013-01-27 10:56:00
3:03 AM,32.0,30.2,93,29.79,2.5,WNW,3.5,-,0.00,Snow,Light Snow,290,2013-01-27 11:03:00
3:17 AM,32.0,30.2,93,29.79,3.0,Calm,Calm,-,0.00,Snow,Light Snow,0,2013-01-27 11:17:00
3:33 AM,32.0,30.2,93,29.79,8.0,Calm,Calm,-,0.00,Snow,Light Snow,0,2013-01-27 11:33:00
3:56 AM,30.9,28.9,92,29.81,10.0,West,3.5,-,0.00,,Overcast,270,2013-01-27 11:56:00
4:56 AM,30.0,28.9,96,29.81,10.0,Calm,Calm,-,N/A,,Overcast,0,2013-01-27 12:56:00
5:56 AM,30.9,25.0,79,29.83,10.0,NNW,3.5,-,0.00,,Overcast,330,2013-01-27 13:56:00
6:20 AM,30.2,23.0,75,29.80,10.0,NNW,5.8,-,N/A,,Overcast,340,2013-01-27 14:20:00
6:40 AM,28.4,23.0,80,29.80,10.0,Variable,3.5,-,N/A,,Overcast,0,2013-01-27 14:40:00
6:51 AM,28.4,23.0,80,29.79,10.0,ENE,4.6,-,N/A,,Overcast,70,2013-01-27 14:51:00
6:56 AM,28.9,21.9,75,29.85,10.0,NE,6.9,-,N/A,,Overcast,40,2013-01-27 14:56:00
7:56 AM,28.9,24.1,82,29.86,10.0,Calm,Calm,-,N/A,,Overcast,0,2013-01-27 15:56:00
8:56 AM,30.0,23.0,75,29.87,10.0,NNW,5.8,-,N/A,,Overcast,330,2013-01-27 16:56:00
9:56 AM,30.9,21.9,69,29.89,10.0,North,4.6,-,N/A,,Overcast,10,2013-01-27 17:56:00
10:45 AM,30.2,23.0,75,29.84,2.5,Calm,Calm,-,0.00,Snow,Light Snow,0,2013-01-27 18:45:00
10:56 AM,30.9,24.1,76,29.89,2.0,Calm,Calm,-,0.00,Snow,Light Snow,0,2013-01-27 18:56:00
11:04 AM,30.2,24.8,80,29.85,2.0,Calm,Calm,-,0.00,Snow,Light Snow,0,2013-01-27 19:04:00
11:11 AM,30.2,24.8,80,29.85,1.8,South,3.5,-,0.00,Snow,Light Snow,170,2013-01-27 19:11:00
11:23 AM,30.2,26.6,86,29.86,1.5,South,3.5,-,0.00,Snow,Light Snow,180,2013-01-27 19:23:00
11:39 AM,28.4,26.6,93,29.85,0.8,SSW,3.5,-,0.01,Snow,Light Snow,200,2013-01-27 19:39:00
11:49 AM,30.2,26.6,86,29.85,1.0,Calm,Calm,-,0.01,Snow,Light Snow,0,2013-01-27 19:49:00
11:56 AM,30.0,28.0,92,29.89,1.0,Calm,Calm,-,0.01,Snow,Light Snow,0,2013-01-27 19:56:00
12:10 PM,30.2,26.6,86,29.84,3.0,Calm,Calm,-,0.00,Snow,Light Snow,0,2013-01-27 20:10:00
12:33 PM,30.2,26.6,86,29.85,2.5,Calm,Calm,-,0.01,Snow,Light Snow,0,2013-01-27 20:33:00
12:42 PM,30.2,26.6,86,29.85,1.0,Calm,Calm,-,0.01,Snow,Light Snow,0,2013-01-27 20:42:00
12:56 PM,28.9,27.0,92,29.88,0.8,Calm,Calm,-,0.01,Snow,Light Snow,0,2013-01-27 20:56:00
1:02 PM,28.4,26.6,93,29.84,0.2,Calm,Calm,-,0.01,Fog-Snow,Snow,0,2013-01-27 21:02:00
1:10 PM,28.4,26.6,93,29.84,0.2,Calm,Calm,-,0.01,Fog-Snow,Snow,0,2013-01-27 21:10:00
1:18 PM,30.2,28.4,93,29.84,0.8,Calm,Calm,-,0.02,Snow,Light Snow,0,2013-01-27 21:18:00
1:26 PM,28.4,26.6,93,29.84,1.0,WSW,3.5,-,0.02,Snow,Light Snow,250,2013-01-27 21:26:00
1:41 PM,30.2,24.8,80,29.85,3.0,NNW,8.1,-,0.02,Snow,Light Snow,340,2013-01-27 21:41:00
1:56 PM,30.9,23.0,72,29.90,9.0,NNW,6.9,-,0.02,,Overcast,340,2013-01-27 21:56:00
2:03 PM,30.2,21.2,69,29.85,10.0,NNW,6.9,-,N/A,,Overcast,340,2013-01-27 22:03:00
2:56 PM,28.0,19.9,72,29.92,10.0,NNW,15.0,25.3,N/A,,Overcast,330,2013-01-27 22:56:00
3:56 PM,27.0,19.9,75,29.95,10.0,NNW,13.8,-,N/A,,Overcast,330,2013-01-27 23:56:00
4:56 PM,27.0,16.0,63,29.97,10.0,NNW,12.7,-,N/A,,Overcast,330,2013-01-28 00:56:00
5:56 PM,26.1,14.0,60,30.00,10.0,North,5.8,-,N/A,,Clear,10,2013-01-28 01:56:00
6:56 PM,19.9,10.9,68,30.04,10.0,WSW,3.5,-,N/A,,Clear,240,2013-01-28 02:56:00
7:56 PM,16.0,10.0,77,30.08,10.0,SW,3.5,-,N/A,,Mostly Cloudy,230,2013-01-28 03:56:00
8:56 PM,19.9,12.0,71,30.06,10.0,Calm,Calm,-,N/A,,Overcast,0,2013-01-28 04:56:00
9:56 PM,18.0,12.9,81,30.06,10.0,West,5.8,-,N/A,,Overcast,260,2013-01-28 05:56:00
10:56 PM,17.1,10.9,77,30.06,10.0,West,4.6,-,N/A,,Overcast,270,2013-01-28 06:56:00
11:56 PM,19.9,14.0,78,30.06,10.0,Calm,Calm,-,N/A,,Overcast,0,2013-01-28 07:56:00